Weather History for Galax, VA

Change the Weather History Date:

Friday, February 1, 2013

  Actual Average (KBLF) Record (KBLF)
Temperature  
Mean Temperature -2 °C 2 °C  
Max Temperature 4 °C 6 °C 21 °C (1990)
Min Temperature -8 °C -3 °C -18 °C (1971)
Degree Days  
Heating Degree Days 37 30  
Month to date heating degree days 30  
Since 1 July heating degree days 2750  
Cooling Degree Days 0 0  
Month to date cooling degree days 0  
Year to date cooling degree days 0  
Moisture  
Dew Point -13 °C    
Average Humidity 57    
Maximum Humidity 87    
Minimum Humidity 39    
Precipitation  
Precipitation 0.00 mm 2.29 mm 2.16 mm (1985)
Month to date precipitation 0.09  
Year to date precipitation 2.99  
Snow  
Snow 0.00 cm - - ()
Month to date snowfall  
Since 1 July snowfall  
Snow Depth -    
Sea Level Pressure  
Sea Level Pressure 1019 hPa    
Wind  
Wind Speed 26 km/h (WNW)    
Max Wind Speed 48 km/h    
Max Gust Speed 61 km/h    
Visibility 15 kilometers    
Events Snow    
T = Trace of Precipitation, MM = Missing Value Source: NWS Daily Summary

Daily Weather History Graph

Daily Weather History Graph

Search for Another Location

Airport:

Trip Planner

Search our weather history database for the weather conditions in past years. The results will help you decide how hot, cold, wet, or windy it might be!

Date:

Astronomy

Feb. 01, 2013 Rise Set
Actual Time 7:25 AM EST 5:49 PM EST
Civil Twilight 6:57 AM EST 6:16 PM EST
Nautical Twilight 6:26 AM EST 6:47 PM EST
Astronomical Twilight 5:56 AM EST 7:17 PM EST
Moon 11:43 PM EST (2/1) 10:07 AM EST (2/1)
Length of Visible Light 11h 18m
Length of Day
10h 24m
Waning Gibbous, 70% of the Moon is Illuminated
Feb 1
Waning Gibbous
Feb 3
Last Quarter
Feb 10
New
Feb 17
First Quarter
Feb 25
Full

Hourly Weather History & Observations

Time (EST) Temp. Windchill Dew Point Humidity Pressure Visibility Wind Dir Wind Speed Gust Speed Precip Events Conditions
12:15 AM 2.0 °C -3.2 °C -6.0 °C 56% 1011.1 hPa 16.1 km SW 24.1 km/h / 6.7 m/s 31.5 km/h / 8.7 m/s N/A   Clear
12:35 AM 2.0 °C -2.7 °C -5.0 °C 60% 1010.7 hPa 16.1 km SW 20.4 km/h / 5.7 m/s 31.5 km/h / 8.7 m/s N/A   Scattered Clouds
1:15 AM 2.0 °C -4.3 °C -5.0 °C 60% 1010.0 hPa 16.1 km SW 35.2 km/h / 9.8 m/s 51.9 km/h / 14.4 m/s N/A   Overcast
1:35 AM 3.0 °C -1.5 °C -4.0 °C 60% 1009.7 hPa 16.1 km SW 20.4 km/h / 5.7 m/s 35.2 km/h / 9.8 m/s N/A   Overcast
2:15 AM 4.0 °C -0.6 °C -4.0 °C 56% 1009.0 hPa 16.1 km WSW 24.1 km/h / 6.7 m/s 44.4 km/h / 12.3 m/s N/A   Mostly Cloudy
2:35 AM 4.0 °C -0.8 °C -3.0 °C 61% 1009.4 hPa 16.1 km WSW 25.9 km/h / 7.2 m/s 51.9 km/h / 14.4 m/s N/A   Mostly Cloudy
2:55 AM 3.0 °C -2.5 °C -2.0 °C 70% 1009.0 hPa 16.1 km WSW 29.6 km/h / 8.2 m/s 61.1 km/h / 17.0 m/s N/A   Scattered Clouds
3:15 AM 2.0 °C -4.3 °C -1.0 °C 81% 1009.4 hPa 8.0 km WSW 35.2 km/h / 9.8 m/s 53.7 km/h / 14.9 m/s N/A Snow Light Snow
3:35 AM 2.0 °C -4.1 °C -1.0 °C 81% 1008.7 hPa 6.4 km WSW 33.3 km/h / 9.3 m/s 50.0 km/h / 13.9 m/s N/A Snow Light Snow
3:55 AM 2.0 °C -3.6 °C -1.0 °C 81% 1009.0 hPa 11.3 km WSW 27.8 km/h / 7.7 m/s 44.4 km/h / 12.3 m/s N/A Snow Light Snow
4:15 AM 1.0 °C -5.1 °C -1.0 °C 87% 1009.7 hPa 1.2 km West 29.6 km/h / 8.2 m/s 46.3 km/h / 12.9 m/s N/A Snow Snow
4:35 AM -2.0 °C -10.7 °C -5.0 °C 80% 1011.1 hPa 2.8 km NW 48.2 km/h / 13.4 m/s 57.4 km/h / 15.9 m/s N/A Snow Light Snow
4:55 AM -3.0 °C -10.1 °C -6.0 °C 80% 1012.1 hPa 4.8 km NW 27.8 km/h / 7.7 m/s 48.2 km/h / 13.4 m/s N/A Snow Light Snow
5:15 AM -3.0 °C -10.1 °C -6.0 °C 80% 1012.4 hPa 4.8 km WNW 27.8 km/h / 7.7 m/s 44.4 km/h / 12.3 m/s N/A Snow Light Snow
5:35 AM -4.0 °C -12.0 °C -9.0 °C 69% 1013.1 hPa 16.1 km West 33.3 km/h / 9.3 m/s 51.9 km/h / 14.4 m/s N/A Snow Light Snow
5:55 AM -4.0 °C -11.6 °C -11.0 °C 59% 1013.8 hPa 16.1 km WNW 29.6 km/h / 8.2 m/s 46.3 km/h / 12.9 m/s N/A   Scattered Clouds
6:15 AM -5.0 °C -13.9 °C -11.0 °C 63% 1013.8 hPa 16.1 km WNW 38.9 km/h / 10.8 m/s 50.0 km/h / 13.9 m/s N/A   Scattered Clouds
6:35 AM -6.0 °C -14.2 °C -12.0 °C 63% 1014.1 hPa 16.1 km WNW 29.6 km/h / 8.2 m/s 50.0 km/h / 13.9 m/s N/A   Scattered Clouds
6:55 AM -7.0 °C -15.8 °C -11.0 °C 74% 1014.4 hPa 16.1 km WNW 31.5 km/h / 8.7 m/s 53.7 km/h / 14.9 m/s N/A   Clear
7:15 AM -7.0 °C -16.2 °C -12.0 °C 68% 1015.1 hPa 16.1 km WNW 35.2 km/h / 9.8 m/s 57.4 km/h / 15.9 m/s N/A   Clear
7:35 AM -7.0 °C -16.8 °C -13.0 °C 63% 1015.5 hPa 16.1 km WNW 40.7 km/h / 11.3 m/s 61.1 km/h / 17.0 m/s N/A   Scattered Clouds
7:55 AM -8.0 °C -17.7 °C -13.0 °C 68% 1016.1 hPa 16.1 km WNW 37.0 km/h / 10.3 m/s 53.7 km/h / 14.9 m/s N/A   Scattered Clouds
8:15 AM -8.0 °C -17.9 °C -13.0 °C 68% 1016.8 hPa 11.3 km West 38.9 km/h / 10.8 m/s 51.9 km/h / 14.4 m/s N/A Snow Light Snow
8:35 AM -8.0 °C -18.1 °C -13.0 °C 68% 1017.5 hPa 16.1 km WNW 40.7 km/h / 11.3 m/s 51.9 km/h / 14.4 m/s N/A   Mostly Cloudy
8:55 AM -8.0 °C -16.0 °C -13.0 °C 68% 1017.8 hPa 16.1 km West 24.1 km/h / 6.7 m/s 38.9 km/h / 10.8 m/s N/A   Scattered Clouds
9:15 AM -8.0 °C -18.3 °C -16.0 °C 53% 1018.5 hPa 16.1 km WNW 42.6 km/h / 11.8 m/s 57.4 km/h / 15.9 m/s N/A   Scattered Clouds
9:35 AM -8.0 °C -16.8 °C -16.0 °C 53% 1018.5 hPa 16.1 km West 29.6 km/h / 8.2 m/s 53.7 km/h / 14.9 m/s N/A   Clear
9:55 AM -8.0 °C -17.9 °C -16.0 °C 53% 1019.2 hPa 16.1 km WNW 38.9 km/h / 10.8 m/s 48.2 km/h / 13.4 m/s N/A   Clear
10:15 AM -8.0 °C -16.8 °C -16.0 °C 53% 1019.5 hPa 16.1 km West 29.6 km/h / 8.2 m/s 40.7 km/h / 11.3 m/s N/A   Clear
10:35 AM -8.0 °C -17.7 °C -16.0 °C 53% 1020.2 hPa 16.1 km WNW 37.0 km/h / 10.3 m/s 50.0 km/h / 13.9 m/s N/A   Clear
11:15 AM -8.0 °C -16.3 °C -16.0 °C 53% 1020.9 hPa 16.1 km WNW 25.9 km/h / 7.2 m/s 40.7 km/h / 11.3 m/s N/A   Clear
11:35 AM -8.0 °C -17.3 °C -16.0 °C 53% 1021.2 hPa 16.1 km WNW 33.3 km/h / 9.3 m/s 44.4 km/h / 12.3 m/s N/A   Clear
11:55 AM -8.0 °C -16.6 °C -17.0 °C 49% 1021.2 hPa 16.1 km West 27.8 km/h / 7.7 m/s 42.6 km/h / 11.8 m/s N/A   Clear
12:15 PM -7.0 °C -15.5 °C -17.0 °C 46% 1021.2 hPa 16.1 km NW 29.6 km/h / 8.2 m/s - N/A   Clear
12:35 PM -7.0 °C -14.7 °C -16.0 °C 49% 1021.2 hPa 16.1 km WNW 24.1 km/h / 6.7 m/s 35.2 km/h / 9.8 m/s N/A   Clear
12:55 PM -7.0 °C -15.0 °C -16.0 °C 49% 1020.9 hPa 16.1 km NW 25.9 km/h / 7.2 m/s 37.0 km/h / 10.3 m/s N/A   Clear
1:15 PM -6.0 °C -14.7 °C -16.0 °C 46% 1020.9 hPa 16.1 km WNW 33.3 km/h / 9.3 m/s 42.6 km/h / 11.8 m/s N/A   Clear
1:35 PM -6.0 °C -14.2 °C -17.0 °C 42% 1020.9 hPa 16.1 km West 29.6 km/h / 8.2 m/s 42.6 km/h / 11.8 m/s N/A   Clear
1:55 PM -6.0 °C -14.0 °C -16.0 °C 46% 1020.9 hPa 16.1 km WNW 27.8 km/h / 7.7 m/s 42.6 km/h / 11.8 m/s N/A   Clear
2:15 PM -6.0 °C -15.1 °C -17.0 °C 42% 1021.2 hPa 16.1 km NW 37.0 km/h / 10.3 m/s 46.3 km/h / 12.9 m/s N/A   Clear
2:35 PM -6.0 °C -14.7 °C -16.0 °C 46% 1021.2 hPa 16.1 km WNW 33.3 km/h / 9.3 m/s 48.2 km/h / 13.4 m/s N/A   Clear
2:55 PM -6.0 °C -13.7 °C -17.0 °C 42% 1021.2 hPa 16.1 km NW 25.9 km/h / 7.2 m/s 46.3 km/h / 12.9 m/s N/A   Clear
3:15 PM -5.0 °C -13.1 °C -17.0 °C 39% 1021.6 hPa 16.1 km NW 31.5 km/h / 8.7 m/s 48.2 km/h / 13.4 m/s N/A   Clear
3:35 PM -5.0 °C -11.9 °C -17.0 °C 39% 1021.6 hPa 16.1 km NW 22.2 km/h / 6.2 m/s 40.7 km/h / 11.3 m/s N/A   Clear
4:15 PM -5.0 °C -12.4 °C -17.0 °C 39% 1021.9 hPa 16.1 km WNW 25.9 km/h / 7.2 m/s 33.3 km/h / 9.3 m/s N/A   Clear
4:35 PM -5.0 °C -11.9 °C -17.0 °C 39% 1021.9 hPa 16.1 km NW 22.2 km/h / 6.2 m/s 37.0 km/h / 10.3 m/s N/A   Clear
4:55 PM -5.0 °C -12.9 °C -17.0 °C 39% 1022.2 hPa 16.1 km NW 29.6 km/h / 8.2 m/s 37.0 km/h / 10.3 m/s N/A   Clear
5:15 PM -5.0 °C -11.3 °C -17.0 °C 39% 1022.2 hPa 16.1 km WNW 18.5 km/h / 5.1 m/s 29.6 km/h / 8.2 m/s N/A   Clear
5:35 PM -5.0 °C -11.3 °C -17.0 °C 39% 1022.6 hPa 16.1 km WNW 18.5 km/h / 5.1 m/s 31.5 km/h / 8.7 m/s N/A   Clear
5:55 PM -6.0 °C -10.2 °C -16.0 °C 46% 1022.2 hPa 16.1 km NW 9.3 km/h / 2.6 m/s - N/A   Clear
6:15 PM -6.0 °C -12.1 °C -16.0 °C 46% 1022.6 hPa 16.1 km WNW 16.7 km/h / 4.6 m/s - N/A   Clear
6:35 PM -6.0 °C -12.1 °C -16.0 °C 46% 1022.9 hPa 16.1 km WNW 16.7 km/h / 4.6 m/s - N/A   Clear
6:55 PM -6.0 °C -12.1 °C -16.0 °C 46% 1022.6 hPa 16.1 km NW 16.7 km/h / 4.6 m/s - N/A   Clear
7:15 PM -7.0 °C -13.8 °C -16.0 °C 49% 1022.9 hPa 16.1 km WNW 18.5 km/h / 5.1 m/s - N/A   Clear
7:35 PM -7.0 °C -12.5 °C -16.0 °C 49% 1022.9 hPa 16.1 km WNW 13.0 km/h / 3.6 m/s - N/A   Clear
7:55 PM -7.0 °C -10.7 °C -16.0 °C 49% 1023.2 hPa 16.1 km WNW 7.4 km/h / 2.1 m/s - N/A   Clear
8:15 PM -7.0 °C -12.0 °C -15.0 °C 54% 1023.6 hPa 16.1 km WNW 11.1 km/h / 3.1 m/s - N/A   Clear
8:35 PM -7.0 °C -9.8 °C -15.0 °C 54% 1023.9 hPa 16.1 km West 5.6 km/h / 1.5 m/s - N/A   Clear
8:55 PM -7.0 °C -12.5 °C -15.0 °C 54% 1023.9 hPa 16.1 km WNW 13.0 km/h / 3.6 m/s - N/A   Clear
9:15 PM -7.0 °C -12.0 °C -14.0 °C 58% 1023.9 hPa 16.1 km WNW 11.1 km/h / 3.1 m/s - N/A   Clear
9:35 PM -7.0 °C -9.8 °C -14.0 °C 58% 1023.9 hPa 16.1 km WNW 5.6 km/h / 1.5 m/s - N/A   Clear
9:55 PM -7.0 °C - -14.0 °C 58% 1023.9 hPa 16.1 km Calm Calm - N/A   Clear
10:15 PM -8.0 °C -11.0 °C -14.0 °C 63% 1023.9 hPa 16.1 km WNW 5.6 km/h / 1.5 m/s - N/A   Clear
10:35 PM -8.0 °C -12.6 °C -14.0 °C 63% 1023.9 hPa 16.1 km WNW 9.3 km/h / 2.6 m/s - N/A   Clear
10:55 PM -8.0 °C -11.9 °C -14.0 °C 63% 1023.9 hPa 16.1 km West 7.4 km/h / 2.1 m/s - N/A   Clear
11:15 PM -8.0 °C -13.2 °C -14.0 °C 63% 1023.6 hPa 16.1 km WNW 11.1 km/h / 3.1 m/s - N/A   Clear
11:35 PM -8.0 °C -11.9 °C -14.0 °C 63% 1023.6 hPa 16.1 km West 7.4 km/h / 2.1 m/s - N/A   Clear
11:55 PM -8.0 °C -11.0 °C -14.0 °C 63% 1023.6 hPa 16.1 km WNW 5.6 km/h / 1.5 m/s - N/A   Clear